User: anonymous   Login
Location: El Corozo
(10.5833°N, 66.9667°W)
Time: 06:12:34
(UTC+00:00)
Language:

Delta 202 - Orbit

View from above orbital plane
View from above orbital plane
View from above satellite
View from above satellite

Ground track
Ground track

The orbit data is extracted from the following two-line orbital elements,

1 21048U 91001B   24205.35033613  .00000149  00000-0 -15087-4 0  9993
2 21048  18.4499 257.1602 1188589  83.1825 290.2015 11.85381446454106
Epoch (UTC): 23 July 2024 08:24:29
Eccentricity: 0.1188589
inclination: 18.4499°
perigee height: 781 km
apogee height: 2713 km
right ascension of ascending node: 257.1602°
argument of perigee: 83.1825°
revolutions per day: 11.85381446
mean anomaly at epoch: 290.2015°
orbit number at epoch: 45410

The dashed part of the orbit path shows where the satellite is in the earth's shadow,  

DLR